Regional Weather Roundup
Issued by NWS Huntsville, AL

Home | Current Version | Previous Version | Text Only | Print | Product List | Glossary On
Versions: 1 2 3 4 5 6 7 8 9 10 11 12 13 14 15 16 17 18 19 20 21 22 23 24 25 26 27 28 29 30 31 32 33 34 35 36 37 38 39 40 41 42 43 44 45 46 47 48 49 50
000
ASUS44 KHUN 130710
RWRHUN

WEATHER ROUNDUP FOR THE TENNESSEE VALLEY
NATIONAL WEATHER SERVICE HUNTSVILLE AL
100 AM CST SAT FEB 13 2016

ALZ001>004-130800-
NORTHWEST ALABAMA

CITY           SKY/WX    TMP DP  RH WIND       PRES   REMARKS
SHOALS AIRPORT PTCLDY    33  20  58 N9        30.40R WCI  25
SHOALS TVA RES   N/A     34 N/A N/A MISG        N/A
$$

ALZ005>007-016-130800-
NORTH CENTRAL ALABAMA

CITY           SKY/WX    TMP DP  RH WIND       PRES   REMARKS
DECATUR AP     PTCLDY    31  19  61 N13       30.37R WCI  21
HUNTSVILLE AP  PTCLDY    33  18  53 N7        30.35R WCI  27
HUN NWS/UAH      N/A     32  21  63 N6          N/A  WCI  26
MERIDIANVILLE  PTCLDY    30  21  69 N9        30.34S WCI  22
REDSTONE ARSN  PTCLDY    31  21  68 N7        30.34R WCI  24
VINEMONT AP    FAIR      32  20  60 N8        30.34R WCI  25
$$

ALZ008>010-130800-
NORTHEAST ALABAMA

CITY           SKY/WX    TMP DP  RH WIND       PRES   REMARKS
ALBERTVILLE    CLEAR     32  28  86 N13G21    30.30R WCI  22
FORT PAYNE     CLEAR     32  19  59 NW7       30.30R WCI  26
SCOTTSBORO AP  PTCLDY    32  19  59 N7        30.34S WCI  26
SCOTTSBORO HCN   N/A     34 N/A N/A MISG        N/A
VALLEY HEAD      N/A     32 N/A N/A MISG        N/A
$$

TNZ076-096-097-130800-
SOUTHEASTERN MIDDLE TENNESSEE

CITY           SKY/WX    TMP DP  RH WIND       PRES   REMARKS
TULLAHOMA      CLEAR     25  19  80 N13       30.34R WCI  13
WINCHESTER     CLEAR     27  18  69 N8        30.33R WCI  18
$$

...SURROUNDING SITES...

CITY           SKY/WX    TMP DP  RH WIND       PRES   REMARKS
ATLANTA        PTCLDY    37  26  64 NW14      30.19S WCI  28
ANNISTON       PTCLDY    39  26  59 NW8       30.30R WCI  33
BIRMINGHAM     PTCLDY    38  25  59 N8        30.34R WCI  32
CHATTANOOGA    PTCLDY    32  17  54 N13       30.31R WCI  22
DALTON         PTCLDY    32  23  69 N14G24    30.28S WCI  22
GADSDEN        CLEAR     36  26  67 N13       30.33R WCI  27
GOLDEN TRNGL   PTCLDY    36  23  60 N7        30.37R WCI  30
HALEYVILLE     FAIR      32  21  64 N9        30.37R WCI  24
JACKSON TN     CLEAR     29  18  63 N14       30.47R WCI  18
MEMPHIS        CLEAR     35  21  56 N13G22    30.46R WCI  26
NASHVILLE      PTCLDY    26  12  55 NW10G20   30.42R WCI  16
OXFORD MS      FAIR      32  25  74 NE12G17   30.43S WCI  23
ROME           MOCLDY    35  22  58 N14       30.28R WCI  26
SAVANNAH       MOCLDY    30  19  64 N14G21    30.42R WCI  20
TUPELO         CLEAR     35  24  64 N20       30.41R WCI  24
TUSCALOOSA     PTCLDY    39  24  55 N7        30.36R WCI  34
$$

...GULF COAST WEATHER...

CITY           SKY/WX    TMP DP  RH WIND       PRES   REMARKS
GULFPORT       PTCLDY    55  35  47 N10       30.29R
PASCAGOULA     PTCLDY    54  37  52 N17       30.28S
MOBILE         PTCLDY    52  36  54 N16       30.29S
GULF SHORES    MOSUNNY   55  38  54 N5        30.25S
PENSACOLA      CLEAR     54  39  57 N7        30.25R
DESTIN         CLEAR     57  40  52 N10       30.23R
PANAMA CITY    CLEAR     57  49  75 N12       30.20S
APPALACHICOLA  CLEAR     58  58 100 NW6       30.19S
$$




USA.gov is the U.S. government's official web portal to all federal, state and local government web resources and services.